Location: Santiago
(33.4378°S, 70.6505°W)
Time: 14:11:42
(UTC+00:00)

ISS - Pass Details

Date: 06 July 2025
Orbit: 413 x 417 km, 51.6° (Epoch: 13 July)

Event Time Altitude Azimuth Distance (km) Brightness Sun altitude
Rises 21:54:59 0° 233° (SW) 2,377 0.5 -2.1°
Reaches altitude 10° 21:57:09 10° 240° (WSW) 1,506 -0.4 -2.5°
Maximum altitude 22:00:22 42° 312° (NW) 610 -2.2 -3.1°
Drops below altitude 10° 22:03:33 10° 24° (NNE) 1,487 -0.9 -3.7°
Sets 22:05:41 0° 31° (NNE) 2,341 0.0 -4.1°
